Regional Weather Roundup
Issued by NWS

Home | Current Version | Previous Version | Text Only | Print | Product List | Glossary Off
Versions: 1 2 3 4 5 6 7 8 9 10 11 12 13 14 15 16 17 18 19 20 21 22 23 24 25 26 27 28 29 30 31 32 33 34 35 36 37 38 39 40 41 42 43 44 45 46 47 48 49 50

000
ASUS43 KLSX 271559
RWRMO

WEATHER SUMMARY FOR MISSOURI
NATIONAL WEATHER SERVICE SPRINGFIELD MO
1100 AM CDT FRI MAR 27 2015

NOTE: "FAIR" INDICATES FEW OR NO CLOUDS BELOW 12,000 FEET WITH NO
       SIGNIFICANT WEATHER AND/OR OBSTRUCTIONS TO VISIBILITY.
       CURRENT SKY AND/OR WEATHER CONDITIONS ARE NOT AVAILABLE FOR
       CHILLICOTHE AND FARMINGTON.

MOZ001>031-035>038-043-044-053-054-271700-
...NORTHERN AND WESTERN MISSOURI...

CITY           SKY/WX    TMP DP  RH WIND       PRES   REMARKS
KANSAS CTY INT PTSUNNY   37  24  59 N12       30.27S WCI  29
KANSAS C DTWN  PTSUNNY   39  20  46 N10       30.28S
LEE`S SUMMIT   MOSUNNY   37  23  56 N14G21    30.27R WCI  28
ST JOSEPH      PTSUNNY   35  21  56 N12       30.30S WCI  27
CHILLICOTHE      N/A     36  19  50 N10       30.27S WCI  28
KIRKSVILLE     MOSUNNY   36  16  44 N14       30.23S WCI  27

$$
MOZ066>068-077>081-088>096-101>105-271700-
...SOUTHWEST MISSOURI...

CITY           SKY/WX    TMP DP  RH WIND       PRES   REMARKS
SPRINGFIELD    CLOUDY    37  30  75 N13       30.19S WCI  29
JOPLIN         PTSUNNY   40  29  64 N12G22    30.25R

$$
MOZ032>034-039>042-045>050-055>058-069>072-271700-
...CENTRAL MISSOURI...

CITY           SKY/WX    TMP DP  RH WIND       PRES   REMARKS
COLUMBIA       CLOUDY    36  24  62 N14       30.22R WCI  27
JEFFERSON CITY CLOUDY    37  21  52 N10G20    30.23R WCI  30
ROLLA          PTSUNNY   36  23  59 MISG      30.17R
SEDALIA        PTSUNNY   37  26  64 N12       30.24S WCI  29
OSAGE BEACH    CLOUDY    37  25  60 NW6       30.20F

$$
MOZ051-052-059>065-271700-
...EAST CENTRAL MISSOURI...

CITY           SKY/WX    TMP DP  RH WIND       PRES   REMARKS
ST LOUIS INTL  CLOUDY    38  24  57 N14       30.19R WCI  30
SPIRIT OF STL  PTSUNNY   37  22  54 N12       30.19R WCI  29
ST CHARLES     CLOUDY    36  24  62 N10       30.20R WCI  28

$$
MOZ072>076-082>087-097>100-106>115-271700-
...SOUTH CENTRAL AND SOUTHEAST MISSOURI...

CITY           SKY/WX    TMP DP  RH WIND       PRES   REMARKS
CAPE GIRARDEAU CLOUDY    38  32  79 N16       30.14R WCI  29
FARMINGTON     CLOUDY    34  25  69 N12G20    30.18R WCI  25
POPLAR BLUFF   CLOUDY    41  31  67 N14       30.14R
WEST PLAINS    CLOUDY    38  31  76 MISG      30.16R

$$



USA.gov is the U.S. government's official web portal to all federal, state and local government web resources and services.